Terminal Aerodrome Forecast
Issued by NWS Louisville, KY

Home | Current Version | Previous Version | Text Only | Print | Product List | Glossary On
Versions: 1 2 3 4 5 6 7 8 9 10 11 12 13 14 15 16
000
FTUS43 KLMK 240500
TAFLEX
TAF
KLEX 240520Z 2406/2506 04008KT P6SM BKN070
     FM241500 06008KT P6SM BKN050
     FM241900 08008KT P6SM VCSH OVC040=

USA.gov is the U.S. government's official web portal to all federal, state and local government web resources and services.